User: anonymous   Login
Location: Newark
(36.0797°N, 3.9744°E)
Time: 11:30:19
(UTC+00:00)
Language:

A-11 Canister half - Orbit

View from above orbital plane
View from above orbital plane
View from above satellite
View from above satellite

Ground track
Ground track

The orbit data is extracted from the following two-line orbital elements,

1    51U 60009C   19343.92263770 -.00000124 +00000-0 -38447-3 0  9995
2    51 047.2107 216.8718 0106294 318.1932 041.0774 12.18274130640867
Epoch (UTC): 09 December 2019 22:08:35
Eccentricity: 0.0106294
inclination: 47.2107°
perigee height: 1515 km
apogee height: 1685 km
right ascension of ascending node: 216.8718°
argument of perigee: 318.1932°
revolutions per day: 12.18274130
mean anomaly at epoch: 41.0774°
orbit number at epoch: 64086

The dashed part of the orbit path shows where the satellite is in the earth's shadow,  

DLR